Time,TemperatureF,DewpointF,PressureIn,WindDirection,WindDirectionDegrees,WindSpeedMPH,WindSpeedGustMPH,Humidity,HourlyPrecipIn,Conditions,Clouds,dailyrainin,SoftwareType,DateUTC
2013-02-07 00:00:00,21.5,14.2,30.33,WSW,256,0.0,2.0,73,0.00,RMK !SN!,RMK !SN!,0.04,WUHU216DAVISVP2,2013-02-07 05:00:00,
2013-02-07 00:05:00,21.6,14.3,30.33,WSW,249,0.0,2.0,73,0.00,RMK !SN!,RMK !SN!,0.00,WUHU216DAVISVP2,2013-02-07 05:05:00,
2013-02-07 00:10:00,21.5,14.2,30.33,East,80,1.0,1.0,73,0.00,RMK !SN!,RMK !SN!,0.00,WUHU216DAVISVP2,2013-02-07 05:10:00,
2013-02-07 00:15:00,21.6,14.3,30.33,SSW,207,0.0,2.0,73,0.00,RMK !SN!,RMK !SN!,0.00,WUHU216DAVISVP2,2013-02-07 05:15:00,
2013-02-07 00:20:00,21.6,14.3,30.33,NNW,332,1.0,3.0,73,0.00,RMK !SN!,RMK !SN!,0.00,WUHU216DAVISVP2,2013-02-07 05:20:00,
2013-02-07 00:25:00,21.6,14.3,30.33,ENE,78,1.0,3.0,73,0.00,RMK !SN!,RMK !SN!,0.00,WUHU216DAVISVP2,2013-02-07 05:25:00,
2013-02-07 00:30:00,21.8,14.2,30.33,East,87,0.0,3.0,72,0.00,RMK !SN!,RMK !SN!,0.00,WUHU216DAVISVP2,2013-02-07 05:30:00,
2013-02-07 00:35:00,21.9,14.3,30.33,WNW,293,0.0,4.0,72,0.00,RMK !SN!,RMK !SN!,0.00,WUHU216DAVISVP2,2013-02-07 05:35:00,
2013-02-07 00:40:00,21.9,14.3,30.33,WNW,303,3.0,5.0,72,0.00,RMK !SN!,RMK !SN!,0.00,WUHU216DAVISVP2,2013-02-07 05:40:00,
2013-02-07 00:45:00,22.0,14.4,30.34,NW,322,0.0,5.0,72,0.00,RMK !SN!,RMK !SN!,0.00,WUHU216DAVISVP2,2013-02-07 05:45:00,
2013-02-07 00:50:00,22.0,14.1,30.34,NW,306,0.0,5.0,71,0.00,RMK !SN!,RMK !SN!,0.00,WUHU216DAVISVP2,2013-02-07 05:50:00,
2013-02-07 00:55:00,21.9,14.0,30.35,SE,134,0.0,5.0,71,0.00,RMK !SN!,RMK !SN!,0.00,WUHU216DAVISVP2,2013-02-07 05:55:00,
2013-02-07 01:00:00,21.9,14.0,30.35,NW,316,1.0,7.0,71,0.00,RMK !SN!,RMK !SN!,0.00,WUHU216DAVISVP2,2013-02-07 06:00:00,
2013-02-07 01:05:00,21.9,14.0,30.35,West,280,0.0,7.0,71,0.00,RMK !SN!,RMK !SN!,0.00,WUHU216DAVISVP2,2013-02-07 06:05:00,
2013-02-07 01:10:00,21.7,14.1,30.34,NW,314,0.0,7.0,72,0.00,RMK !SN!,RMK !SN!,0.00,WUHU216DAVISVP2,2013-02-07 06:10:00,
2013-02-07 01:15:00,21.6,14.0,30.34,WSW,242,2.0,3.0,72,0.00,RMK !SN!,RMK !SN!,0.00,WUHU216DAVISVP2,2013-02-07 06:15:00,
2013-02-07 01:20:00,21.7,14.1,30.35,SSW,192,0.0,3.0,72,0.00,RMK !SN!,RMK !SN!,0.00,WUHU216DAVISVP2,2013-02-07 06:20:00,
2013-02-07 01:25:00,21.7,14.1,30.35,East,80,0.0,3.0,72,0.00,RMK !SN!,RMK !SN!,0.00,WUHU216DAVISVP2,2013-02-07 06:25:00,
2013-02-07 01:30:00,21.7,14.1,30.35,South,186,0.0,3.0,72,0.00,RMK !SN!,RMK !SN!,0.00,WUHU216DAVISVP2,2013-02-07 06:30:00,
2013-02-07 01:35:00,21.8,14.2,30.36,SSE,148,0.0,2.0,72,0.00,RMK !SN!,RMK !SN!,0.00,WUHU216DAVISVP2,2013-02-07 06:35:00,
2013-02-07 01:40:00,21.9,14.3,30.36,SSE,155,0.0,2.0,72,0.00,RMK !SN!,RMK !SN!,0.00,WUHU216DAVISVP2,2013-02-07 06:40:00,
2013-02-07 01:45:00,22.0,14.4,30.36,SSE,167,0.0,2.0,72,0.00,RMK !SN!,RMK !SN!,0.00,WUHU216DAVISVP2,2013-02-07 06:45:00,
2013-02-07 01:50:00,22.1,14.5,30.36,NNE,25,2.0,3.0,72,0.00,RMK !SN!,RMK !SN!,0.00,WUHU216DAVISVP2,2013-02-07 06:50:00,
2013-02-07 01:55:00,22.3,14.7,30.36,South,188,0.0,4.0,72,0.00,RMK !SN!,RMK !SN!,0.00,WUHU216DAVISVP2,2013-02-07 06:55:00,
2013-02-07 02:00:00,22.4,14.8,30.36,SSE,155,0.0,4.0,72,0.00,RMK !SN!,RMK !SN!,0.00,WUHU216DAVISVP2,2013-02-07 07:00:00,
2013-02-07 02:05:00,22.5,14.9,30.36,SSE,167,0.0,4.0,72,0.00,RMK !SN!,RMK !SN!,0.00,WUHU216DAVISVP2,2013-02-07 07:05:00,
2013-02-07 02:10:00,22.6,15.3,30.36,SSE,158,0.0,2.0,73,0.00,RMK !SN!,RMK !SN!,0.00,WUHU216DAVISVP2,2013-02-07 07:10:00,
2013-02-07 02:15:00,22.7,15.4,30.37,SSE,158,0.0,1.0,73,0.00,RMK !SN!,RMK !SN!,0.00,WUHU216DAVISVP2,2013-02-07 07:15:00,
2013-02-07 02:20:00,22.9,15.3,30.37,West,262,0.0,3.0,72,0.00,RMK !SN!,RMK !SN!,0.00,WUHU216DAVISVP2,2013-02-07 07:20:00,
2013-02-07 02:25:00,23.0,15.3,30.37,SSE,149,0.0,3.0,72,0.00,RMK !SN!,RMK !SN!,0.00,WUHU216DAVISVP2,2013-02-07 07:25:00,
2013-02-07 02:30:00,23.1,15.1,30.37,SE,124,0.0,2.0,71,0.00,RMK !SN!,RMK !SN!,0.00,WUHU216DAVISVP2,2013-02-07 07:30:00,
2013-02-07 02:35:00,23.1,15.1,30.37,West,265,1.0,2.0,71,0.00,RMK !SN!,RMK !SN!,0.00,WUHU216DAVISVP2,2013-02-07 07:35:00,
2013-02-07 02:40:00,23.1,15.1,30.37,SSW,204,1.0,2.0,71,0.00,RMK !SN!,RMK !SN!,0.00,WUHU216DAVISVP2,2013-02-07 07:40:00,
2013-02-07 02:45:00,23.2,14.9,30.37,South,172,0.0,3.0,70,0.00,RMK !SN!,RMK !SN!,0.00,WUHU216DAVISVP2,2013-02-07 07:45:00,
2013-02-07 02:50:00,23.1,14.8,30.37,WNW,293,1.0,3.0,70,0.00,RMK !SN!,RMK !SN!,0.00,WUHU216DAVISVP2,2013-02-07 07:50:00,
2013-02-07 02:55:00,23.1,14.8,30.37,ESE,110,0.0,3.0,70,0.00,RMK !SN!,RMK !SN!,0.00,WUHU216DAVISVP2,2013-02-07 07:55:00,
2013-02-07 03:00:00,23.0,14.7,30.36,SW,233,1.0,3.0,70,0.00,RMK !SN!,RMK !SN!,0.00,WUHU216DAVISVP2,2013-02-07 08:00:00,
2013-02-07 03:05:00,22.9,14.6,30.36,SSE,154,0.0,3.0,70,0.00,RMK !SN!,RMK !SN!,0.00,WUHU216DAVISVP2,2013-02-07 08:05:00,
2013-02-07 03:10:00,22.9,14.6,30.36,SSW,210,0.0,3.0,70,0.00,RMK !SN!,RMK !SN!,0.00,WUHU216DAVISVP2,2013-02-07 08:10:00,
2013-02-07 03:15:00,22.9,14.6,30.36,West,277,2.0,3.0,70,0.00,RMK !SN!,RMK !SN!,0.00,WUHU216DAVISVP2,2013-02-07 08:15:00,
2013-02-07 03:20:00,23.1,14.8,30.36,East,82,0.0,3.0,70,0.00,RMK !SN!,RMK !SN!,0.00,WUHU216DAVISVP2,2013-02-07 08:20:00,
2013-02-07 03:25:00,23.2,14.9,30.35,SW,221,0.0,4.0,70,0.00,RMK !SN!,RMK !SN!,0.00,WUHU216DAVISVP2,2013-02-07 08:25:00,
2013-02-07 03:30:00,23.4,14.8,30.34,SSW,212,1.0,4.0,69,0.00,RMK !SN!,RMK !SN!,0.00,WUHU216DAVISVP2,2013-02-07 08:30:00,
2013-02-07 03:35:00,23.6,15.0,30.34,SW,222,1.0,7.0,69,0.00,RMK !SN!,RMK !SN!,0.00,WUHU216DAVISVP2,2013-02-07 08:35:00,
2013-02-07 03:40:00,23.7,15.1,30.34,SW,229,0.0,7.0,69,0.00,RMK !SN!,RMK !SN!,0.00,WUHU216DAVISVP2,2013-02-07 08:40:00,
2013-02-07 03:45:00,23.8,15.2,30.34,West,263,1.0,6.0,69,0.00,RMK !SN!,RMK !SN!,0.00,WUHU216DAVISVP2,2013-02-07 08:45:00,
2013-02-07 03:50:00,23.9,15.3,30.34,ENE,60,0.0,4.0,69,0.00,RMK !SN!,RMK !SN!,0.00,WUHU216DAVISVP2,2013-02-07 08:50:00,
2013-02-07 03:55:00,23.9,15.2,30.34,SSW,211,0.0,4.0,69,0.00,RMK !SN!,RMK !SN!,0.00,WUHU216DAVISVP2,2013-02-07 08:55:00,
2013-02-07 04:00:00,23.9,15.3,30.35,SSE,162,0.0,4.0,69,0.00,RMK !SN!,RMK !SN!,0.00,WUHU216DAVISVP2,2013-02-07 09:00:00,
2013-02-07 04:05:00,23.9,15.3,30.35,SSE,149,0.0,4.0,69,0.00,RMK !SN!,RMK !SN!,0.00,WUHU216DAVISVP2,2013-02-07 09:05:00,
2013-02-07 04:10:00,23.8,15.5,30.35,SSW,195,0.0,3.0,70,0.00,RMK !SN!,RMK !SN!,0.00,WUHU216DAVISVP2,2013-02-07 09:10:00,
2013-02-07 04:15:00,23.8,15.5,30.35,SSW,195,0.0,3.0,70,0.00,RMK !SN!,RMK !SN!,0.00,WUHU216DAVISVP2,2013-02-07 09:15:00,
2013-02-07 04:20:00,23.8,15.4,30.35,SE,134,0.0,3.0,70,0.00,RMK !SN!,RMK !SN!,0.00,WUHU216DAVISVP2,2013-02-07 09:20:00,
2013-02-07 04:25:00,23.7,15.7,30.35,South,177,0.0,2.0,71,0.00,RMK !SN!,RMK !SN!,0.00,WUHU216DAVISVP2,2013-02-07 09:25:00,
2013-02-07 04:30:00,23.8,15.8,30.35,ESE,118,0.0,2.0,71,0.00,RMK !SN!,RMK !SN!,0.00,WUHU216DAVISVP2,2013-02-07 09:30:00,
2013-02-07 04:36:00,23.8,15.8,30.35,East,98,0.0,2.0,71,0.00,RMK !SN!,RMK !SN!,0.00,WUHU216DAVISVP2,2013-02-07 09:36:00,
2013-02-07 04:41:00,23.8,15.8,30.36,NNE,28,0.0,2.0,71,0.00,RMK !SN!,RMK !SN!,0.00,WUHU216DAVISVP2,2013-02-07 09:41:00,
2013-02-07 04:46:00,23.9,16.2,30.36,NNE,26,0.0,2.0,72,0.00,RMK !SN!,RMK !SN!,0.00,WUHU216DAVISVP2,2013-02-07 09:46:00,
2013-02-07 04:51:00,24.0,16.3,30.36,WNW,303,0.0,2.0,72,0.00,RMK !SN!,RMK !SN!,0.00,WUHU216DAVISVP2,2013-02-07 09:51:00,
2013-02-07 04:56:00,24.1,16.1,30.36,NNW,347,2.0,6.0,71,0.00,RMK !SN!,RMK !SN!,0.00,WUHU216DAVISVP2,2013-02-07 09:56:00,
2013-02-07 05:02:00,24.1,16.1,30.35,NE,37,1.0,6.0,71,0.00,RMK !SN!,RMK !SN!,0.00,WUHU216DAVISVP2,2013-02-07 10:02:00,
2013-02-07 05:07:00,24.1,15.8,30.35,NNW,334,1.0,6.0,70,0.00,RMK !SN!,RMK !SN!,0.00,WUHU216DAVISVP2,2013-02-07 10:07:00,
2013-02-07 05:12:00,24.0,15.7,30.34,WNW,292,1.0,6.0,70,0.00,RMK !SN!,RMK !SN!,0.00,WUHU216DAVISVP2,2013-02-07 10:12:00,
2013-02-07 05:17:00,23.9,15.6,30.35,SE,145,0.0,6.0,70,0.00,RMK !SN!,RMK !SN!,0.00,WUHU216DAVISVP2,2013-02-07 10:17:00,
2013-02-07 05:22:00,23.9,15.6,30.35,NNE,32,1.0,5.0,70,0.00,RMK !SN!,RMK !SN!,0.00,WUHU216DAVISVP2,2013-02-07 10:22:00,
2013-02-07 05:27:00,24.0,15.6,30.34,SW,217,0.0,5.0,70,0.00,RMK !SN!,RMK !SN!,0.00,WUHU216DAVISVP2,2013-02-07 10:27:00,
2013-02-07 05:32:00,24.1,16.1,30.35,South,191,1.0,4.0,71,0.00,RMK !SN!,RMK !SN!,0.00,WUHU216DAVISVP2,2013-02-07 10:32:00,
2013-02-07 05:37:00,24.3,16.0,30.35,SSW,197,0.0,4.0,70,0.00,RMK !SN!,RMK !SN!,0.00,WUHU216DAVISVP2,2013-02-07 10:37:00,
2013-02-07 05:42:00,24.3,16.3,30.35,SSE,154,0.0,4.0,71,0.00,RMK !SN!,RMK !SN!,0.00,WUHU216DAVISVP2,2013-02-07 10:42:00,
2013-02-07 05:47:00,24.3,16.3,30.35,South,190,1.0,4.0,71,0.00,RMK !SN!,RMK !SN!,0.00,WUHU216DAVISVP2,2013-02-07 10:47:00,
2013-02-07 05:52:00,24.4,16.4,30.35,WSW,238,0.0,4.0,71,0.00,RMK !SN!,RMK !SN!,0.00,WUHU216DAVISVP2,2013-02-07 10:52:00,
2013-02-07 05:57:00,24.5,16.5,30.35,SSE,158,0.0,3.0,71,0.00,RMK !SN!,RMK !SN!,0.00,WUHU216DAVISVP2,2013-02-07 10:57:00,
2013-02-07 06:02:00,24.6,16.5,30.35,West,264,0.0,4.0,71,0.00,RMK !SN!,RMK !SN!,0.00,WUHU216DAVISVP2,2013-02-07 11:02:00,
2013-02-07 06:07:00,24.6,16.5,30.35,SW,232,0.0,4.0,71,0.00,RMK !SN!,RMK !SN!,0.00,WUHU216DAVISVP2,2013-02-07 11:07:00,
2013-02-07 06:12:00,24.6,16.9,30.34,WNW,298,2.0,4.0,72,0.00,RMK !SN!,RMK !SN!,0.00,WUHU216DAVISVP2,2013-02-07 11:12:00,
2013-02-07 06:17:00,24.7,17.0,30.34,SW,226,2.0,4.0,72,0.00,RMK !SN!,RMK !SN!,0.00,WUHU216DAVISVP2,2013-02-07 11:17:00,
2013-02-07 06:22:00,24.6,16.6,30.34,South,187,0.0,4.0,71,0.00,RMK !SN!,RMK !SN!,0.00,WUHU216DAVISVP2,2013-02-07 11:22:00,
2013-02-07 06:27:00,24.6,16.6,30.35,West,271,0.0,4.0,71,0.00,RMK !SN!,RMK !SN!,0.00,WUHU216DAVISVP2,2013-02-07 11:27:00,
2013-02-07 06:32:00,24.7,16.6,30.35,NW,306,0.0,4.0,71,0.00,RMK !SN!,RMK !SN!,0.00,WUHU216DAVISVP2,2013-02-07 11:32:00,
2013-02-07 06:37:00,24.7,17.0,30.35,SW,226,2.0,4.0,72,0.00,RMK !SN!,RMK !SN!,0.00,WUHU216DAVISVP2,2013-02-07 11:37:00,
2013-02-07 06:42:00,24.7,17.0,30.35,WSW,239,2.0,4.0,72,0.00,RMK !SN!,RMK !SN!,0.00,WUHU216DAVISVP2,2013-02-07 11:42:00,
2013-02-07 06:47:00,24.7,17.0,30.35,WSW,248,1.0,3.0,72,0.00,RMK !SN!,RMK !SN!,0.00,WUHU216DAVISVP2,2013-02-07 11:47:00,
2013-02-07 06:52:00,24.6,16.6,30.34,NW,307,1.0,6.0,71,0.00,RMK !SN!,RMK !SN!,0.00,WUHU216DAVISVP2,2013-02-07 11:52:00,
2013-02-07 06:57:00,24.6,16.9,30.34,SW,236,0.0,6.0,72,0.00,RMK !SN!,RMK !SN!,0.00,WUHU216DAVISVP2,2013-02-07 11:57:00,
2013-02-07 07:02:00,24.5,16.8,30.34,South,177,1.0,6.0,72,0.00,RMK !SN!,RMK !SN!,0.00,WUHU216DAVISVP2,2013-02-07 12:02:00,
2013-02-07 07:07:00,24.4,16.7,30.34,SSW,198,2.0,6.0,72,0.00,RMK !SN!,RMK !SN!,0.00,WUHU216DAVISVP2,2013-02-07 12:07:00,
2013-02-07 07:12:00,24.4,16.7,30.34,South,184,0.0,6.0,72,0.00,RMK !SN!,RMK !SN!,0.00,WUHU216DAVISVP2,2013-02-07 12:12:00,
2013-02-07 07:17:00,24.3,16.6,30.33,SW,215,4.0,6.0,72,0.00,RMK !SN!,RMK !SN!,0.00,WUHU216DAVISVP2,2013-02-07 12:17:00,
2013-02-07 07:22:00,24.2,16.1,30.33,SSW,208,0.0,6.0,71,0.00,RMK !SN!,RMK !SN!,0.00,WUHU216DAVISVP2,2013-02-07 12:22:00,
2013-02-07 07:27:00,24.1,16.4,30.33,NNE,28,1.0,5.0,72,0.00,RMK !SN!,RMK !SN!,0.00,WUHU216DAVISVP2,2013-02-07 12:27:00,
2013-02-07 07:32:00,24.0,16.3,30.33,WNW,284,0.0,5.0,72,0.00,RMK !SN!,RMK !SN!,0.00,WUHU216DAVISVP2,2013-02-07 12:32:00,
2013-02-07 07:37:00,24.0,16.3,30.33,North,354,0.0,5.0,72,0.00,RMK !SN!,RMK !SN!,0.00,WUHU216DAVISVP2,2013-02-07 12:37:00,
2013-02-07 07:42:00,24.1,16.7,30.33,NE,41,1.0,5.0,73,0.00,RMK !SN!,RMK !SN!,0.00,WUHU216DAVISVP2,2013-02-07 12:42:00,
2013-02-07 07:47:00,24.2,16.8,30.33,East,93,0.0,5.0,73,0.00,RMK !SN!,RMK !SN!,0.00,WUHU216DAVISVP2,2013-02-07 12:47:00,
2013-02-07 07:53:00,24.3,16.9,30.33,SW,236,1.0,5.0,73,0.00,RMK !SN!,RMK !SN!,0.00,WUHU216DAVISVP2,2013-02-07 12:53:00,
2013-02-07 07:58:00,24.3,16.9,30.32,SW,217,0.0,5.0,73,0.00,RMK !SN!,RMK !SN!,0.00,WUHU216DAVISVP2,2013-02-07 12:58:00,
2013-02-07 08:03:00,24.4,17.0,30.32,NNE,18,2.0,6.0,73,0.00,RMK !SN!,RMK !SN!,0.00,WUHU216DAVISVP2,2013-02-07 13:03:00,
2013-02-07 08:08:00,24.5,17.1,30.32,West,277,1.0,6.0,73,0.00,RMK !SN!,RMK !SN!,0.00,WUHU216DAVISVP2,2013-02-07 13:08:00,
2013-02-07 08:13:00,24.6,17.2,30.32,SW,224,1.0,5.0,73,0.00,RMK !SN!,RMK !SN!,0.00,WUHU216DAVISVP2,2013-02-07 13:13:00,
2013-02-07 08:18:00,24.8,17.4,30.32,ENE,60,1.0,5.0,73,0.00,RMK !SN!,RMK !SN!,0.00,WUHU216DAVISVP2,2013-02-07 13:18:00,
2013-02-07 08:23:00,25.0,17.6,30.33,NNW,345,8.0,8.0,73,0.00,RMK !SN!,RMK !SN!,0.00,WUHU216DAVISVP2,2013-02-07 13:23:00,
2013-02-07 08:28:00,25.1,17.1,30.33,ESE,113,1.0,10.0,71,0.00,RMK !SN!,RMK !SN!,0.00,WUHU216DAVISVP2,2013-02-07 13:28:00,
2013-02-07 08:32:00,25.3,17.6,30.32,WNW,298,3.0,10.0,72,0.00,RMK !SN!,RMK !SN!,0.00,WUHU216DAVISVP2,2013-02-07 13:32:00,
2013-02-07 08:37:00,25.4,17.6,30.32,NW,322,3.0,10.0,72,0.00,RMK !SN!,RMK !SN!,0.00,WUHU216DAVISVP2,2013-02-07 13:37:00,
2013-02-07 08:42:00,25.5,17.8,30.32,NE,55,1.0,10.0,72,0.00,RMK !SN!,RMK !SN!,0.00,WUHU216DAVISVP2,2013-02-07 13:42:00,
2013-02-07 08:48:00,25.7,18.3,30.33,NW,322,4.0,9.0,73,0.00,RMK !SN!,RMK !SN!,0.00,WUHU216DAVISVP2,2013-02-07 13:48:00,
2013-02-07 08:53:00,25.9,18.2,30.33,West,260,2.0,13.0,72,0.00,RMK !SN!,RMK !SN!,0.00,WUHU216DAVISVP2,2013-02-07 13:53:00,
2013-02-07 08:57:00,26.1,18.4,30.32,North,349,4.0,13.0,72,0.00,RMK !SN!,RMK !SN!,0.00,WUHU216DAVISVP2,2013-02-07 13:57:00,
2013-02-07 09:03:00,26.2,18.5,30.32,WNW,293,3.0,11.0,72,0.00,RMK !SN!,RMK !SN!,0.00,WUHU216DAVISVP2,2013-02-07 14:03:00,
2013-02-07 09:07:00,26.4,18.6,30.32,NE,42,2.0,9.0,72,0.00,RMK !SN!,RMK !SN!,0.00,WUHU216DAVISVP2,2013-02-07 14:07:00,
2013-02-07 09:12:00,26.6,18.8,30.31,South,188,4.0,8.0,72,0.00,RMK !SN!,RMK !SN!,0.00,WUHU216DAVISVP2,2013-02-07 14:12:00,
2013-02-07 09:20:00,26.9,19.1,30.31,WNW,287,0.0,9.0,72,0.00,RMK !SN!,RMK !SN!,0.00,WUHU216DAVISVP2,2013-02-07 14:20:00,
2013-02-07 09:25:00,27.2,19.4,30.31,SW,221,2.0,8.0,72,0.00,RMK !SN!,RMK !SN!,0.00,WUHU216DAVISVP2,2013-02-07 14:25:00,
2013-02-07 09:30:00,27.4,19.2,30.30,WNW,299,3.0,8.0,71,0.00,RMK !SN!,RMK !SN!,0.00,WUHU216DAVISVP2,2013-02-07 14:30:00,
2013-02-07 09:35:00,27.6,19.4,30.30,NNW,330,2.0,9.0,71,0.00,RMK !SN!,RMK !SN!,0.00,WUHU216DAVISVP2,2013-02-07 14:35:00,
2013-02-07 09:40:00,28.0,19.9,30.30,ESE,111,2.0,9.0,71,0.00,RMK !SN!,RMK !SN!,0.00,WUHU216DAVISVP2,2013-02-07 14:40:00,
2013-02-07 09:45:00,28.3,20.2,30.29,SW,215,1.0,9.0,71,0.00,RMK !SN!,RMK !SN!,0.00,WUHU216DAVISVP2,2013-02-07 14:45:00,
2013-02-07 09:50:00,28.6,20.4,30.29,WSW,249,3.0,9.0,71,0.00,RMK !SN!,RMK !SN!,0.00,WUHU216DAVISVP2,2013-02-07 14:50:00,
2013-02-07 09:55:00,28.8,20.3,30.29,ENE,70,1.0,8.0,70,0.00,RMK !SN!,RMK !SN!,0.00,WUHU216DAVISVP2,2013-02-07 14:55:00,
2013-02-07 10:00:00,28.9,20.4,30.29,SE,141,1.0,8.0,70,0.00,RMK !SN!,RMK !SN!,0.00,WUHU216DAVISVP2,2013-02-07 15:00:00,
2013-02-07 10:05:00,28.7,19.9,30.29,WNW,294,2.0,8.0,69,0.00,RMK !SN!,RMK !SN!,0.00,WUHU216DAVISVP2,2013-02-07 15:05:00,
2013-02-07 10:10:00,28.7,20.2,30.29,WSW,249,4.0,10.0,70,0.00,RMK !SN!,RMK !SN!,0.00,WUHU216DAVISVP2,2013-02-07 15:10:00,
2013-02-07 10:15:00,28.8,20.3,30.29,WNW,299,0.0,10.0,70,0.00,RMK !SN!,RMK !SN!,0.00,WUHU216DAVISVP2,2013-02-07 15:15:00,
2013-02-07 10:20:00,28.9,20.4,30.28,WNW,293,4.0,9.0,70,0.00,RMK !SN!,RMK !SN!,0.00,WUHU216DAVISVP2,2013-02-07 15:20:00,
2013-02-07 10:25:00,29.0,20.8,30.28,SW,233,3.0,9.0,71,0.00,RMK !SN!,RMK !SN!,0.00,WUHU216DAVISVP2,2013-02-07 15:25:00,
2013-02-07 10:30:00,29.1,20.6,30.28,NW,324,0.0,9.0,70,0.00,RMK !SN!,RMK !SN!,0.00,WUHU216DAVISVP2,2013-02-07 15:30:00,
2013-02-07 10:35:00,29.5,21.0,30.27,NNW,338,3.0,9.0,70,0.00,RMK !SN!,RMK !SN!,0.00,WUHU216DAVISVP2,2013-02-07 15:35:00,
2013-02-07 10:40:00,30.1,21.8,30.27,SW,222,2.0,12.0,71,0.00,RMK !SN!,RMK !SN!,0.00,WUHU216DAVISVP2,2013-02-07 15:40:00,
2013-02-07 10:45:00,30.6,21.4,30.27,West,280,2.0,12.0,68,0.00,RMK !SN!,RMK !SN!,0.00,WUHU216DAVISVP2,2013-02-07 15:45:00,
2013-02-07 10:50:00,30.7,21.8,30.27,NNE,12,5.0,11.0,69,0.00,RMK !SN!,RMK !SN!,0.00,WUHU216DAVISVP2,2013-02-07 15:50:00,
2013-02-07 10:55:00,30.7,21.5,30.28,SW,230,3.0,10.0,68,0.00,RMK !SN!,RMK !SN!,0.00,WUHU216DAVISVP2,2013-02-07 15:55:00,
2013-02-07 11:00:00,30.5,21.6,30.28,East,84,0.0,10.0,69,0.00,RMK !SN!,RMK !SN!,0.00,WUHU216DAVISVP2,2013-02-07 16:00:00,
2013-02-07 11:05:00,30.6,21.3,30.27,NNE,29,3.0,10.0,68,0.00,RMK !SN!,RMK !SN!,0.00,WUHU216DAVISVP2,2013-02-07 16:05:00,
2013-02-07 11:10:00,30.7,21.8,30.28,SW,226,3.0,10.0,69,0.00,RMK !SN!,RMK !SN!,0.00,WUHU216DAVISVP2,2013-02-07 16:10:00,
2013-02-07 11:15:00,30.9,22.0,30.28,SSE,166,0.0,10.0,69,0.00,RMK !SN!,RMK !SN!,0.00,WUHU216DAVISVP2,2013-02-07 16:15:00,
2013-02-07 11:20:00,31.2,22.3,30.27,NW,318,7.0,8.0,69,0.00,RMK !SN!,RMK !SN!,0.00,WUHU216DAVISVP2,2013-02-07 16:20:00,
2013-02-07 11:25:00,31.4,22.1,30.27,NNW,338,2.0,10.0,68,0.00,RMK !SN!,RMK !SN!,0.00,WUHU216DAVISVP2,2013-02-07 16:25:00,
2013-02-07 11:30:00,31.9,22.6,30.27,North,4,10.0,11.0,68,0.00,RMK !SN!,RMK !SN!,0.00,WUHU216DAVISVP2,2013-02-07 16:30:00,
2013-02-07 11:35:00,32.1,22.4,30.27,NW,305,5.0,11.0,67,0.00,RMK !SN!,RMK !SN!,0.00,WUHU216DAVISVP2,2013-02-07 16:35:00,
2013-02-07 11:40:00,32.4,23.1,30.27,SSW,212,2.0,11.0,68,0.00,RMK !SN!,RMK !SN!,0.00,WUHU216DAVISVP2,2013-02-07 16:40:00,
2013-02-07 11:45:00,32.7,22.9,30.27,North,360,3.0,12.0,67,0.00,RMK !SN!,RMK !SN!,0.00,WUHU216DAVISVP2,2013-02-07 16:45:00,
2013-02-07 11:50:00,33.4,23.7,30.26,SE,131,0.0,12.0,67,0.00,RMK !SN!,RMK !SN!,0.00,WUHU216DAVISVP2,2013-02-07 16:50:00,
2013-02-07 11:55:00,34.2,24.5,30.25,NNE,12,1.0,12.0,67,0.00,RMK !SN!,RMK !SN!,0.00,WUHU216DAVISVP2,2013-02-07 16:55:00,
2013-02-07 12:00:00,35.1,25.3,30.25,ENE,76,2.0,12.0,67,0.00,RMK !SN!,RMK !SN!,0.00,WUHU216DAVISVP2,2013-02-07 17:00:00,
2013-02-07 12:06:00,36.1,25.2,30.24,West,277,2.0,8.0,64,0.00,RMK !SN!,RMK !SN!,0.00,WUHU216DAVISVP2,2013-02-07 17:06:00,
2013-02-07 12:11:00,36.8,25.0,30.24,NNE,14,4.0,9.0,62,0.00,RMK !SN!,RMK !SN!,0.00,WUHU216DAVISVP2,2013-02-07 17:11:00,
2013-02-07 12:16:00,37.2,25.0,30.23,WNW,288,1.0,9.0,61,0.00,RMK !SN!,RMK !SN!,0.00,WUHU216DAVISVP2,2013-02-07 17:16:00,
2013-02-07 12:21:00,37.4,24.8,30.23,NW,318,3.0,11.0,60,0.00,RMK !SN!,RMK !SN!,0.00,WUHU216DAVISVP2,2013-02-07 17:21:00,
2013-02-07 12:26:00,37.9,25.3,30.23,WNW,290,5.0,11.0,60,0.01,RMK !SN!,RMK !SN!,0.01,WUHU216DAVISVP2,2013-02-07 17:26:00,
2013-02-07 12:31:00,38.5,24.6,30.22,WNW,302,2.0,10.0,57,0.01,RMK !SN!,RMK !SN!,0.01,WUHU216DAVISVP2,2013-02-07 17:31:00,
2013-02-07 12:36:00,39.0,25.0,30.22,WNW,295,1.0,10.0,57,0.01,RMK !SN!,RMK !SN!,0.01,WUHU216DAVISVP2,2013-02-07 17:36:00,
2013-02-07 12:41:00,39.0,24.7,30.21,NW,312,0.0,9.0,56,0.01,RMK !SN!,RMK !SN!,0.01,WUHU216DAVISVP2,2013-02-07 17:41:00,
2013-02-07 12:46:00,38.6,24.3,30.21,WSW,252,2.0,11.0,56,0.01,RMK !SN!,RMK !SN!,0.01,WUHU216DAVISVP2,2013-02-07 17:46:00,
2013-02-07 12:51:00,38.0,24.6,30.21,NW,309,4.0,11.0,58,0.01,RMK !SN!,RMK !SN!,0.01,WUHU216DAVISVP2,2013-02-07 17:51:00,
2013-02-07 12:56:00,37.7,24.3,30.21,SW,236,3.0,11.0,58,0.01,RMK !SN!,RMK !SN!,0.01,WUHU216DAVISVP2,2013-02-07 17:56:00,
2013-02-07 13:01:00,38.4,25.4,30.20,NNE,29,1.0,11.0,59,0.01,RMK !SN!,RMK !SN!,0.01,WUHU216DAVISVP2,2013-02-07 18:01:00,
2013-02-07 13:06:00,39.0,25.1,30.20,NW,315,2.0,11.0,57,0.01,RMK !SN!,RMK !SN!,0.01,WUHU216DAVISVP2,2013-02-07 18:06:00,
2013-02-07 13:11:00,39.3,25.4,30.19,West,277,2.0,10.0,57,0.01,RMK !SN!,RMK !SN!,0.01,WUHU216DAVISVP2,2013-02-07 18:11:00,
2013-02-07 13:16:00,39.5,25.6,30.19,NNE,29,3.0,11.0,57,0.01,RMK !SN!,RMK !SN!,0.01,WUHU216DAVISVP2,2013-02-07 18:16:00,
2013-02-07 13:21:00,39.8,25.8,30.19,SW,224,3.0,11.0,57,0.01,RMK !SN!,RMK !SN!,0.01,WUHU216DAVISVP2,2013-02-07 18:21:00,
2013-02-07 13:26:00,40.2,26.2,30.18,SSW,211,2.0,10.0,57,0.00,RMK !SN!,RMK !SN!,0.01,WUHU216DAVISVP2,2013-02-07 18:26:00,
2013-02-07 13:31:00,40.7,26.2,30.18,West,273,3.0,10.0,56,0.00,RMK !SN!,RMK !SN!,0.01,WUHU216DAVISVP2,2013-02-07 18:31:00,
2013-02-07 13:36:00,41.4,26.9,30.17,NNW,336,3.0,7.0,56,0.00,RMK !SN!,RMK !SN!,0.01,WUHU216DAVISVP2,2013-02-07 18:36:00,
2013-02-07 13:41:00,41.6,26.6,30.17,SE,131,0.0,9.0,55,0.00,RMK !SN!,RMK !SN!,0.01,WUHU216DAVISVP2,2013-02-07 18:41:00,
2013-02-07 13:46:00,41.2,26.3,30.17,NE,40,1.0,9.0,55,0.00,RMK !SN!,RMK !SN!,0.01,WUHU216DAVISVP2,2013-02-07 18:46:00,
2013-02-07 13:51:00,41.4,26.9,30.16,West,278,4.0,8.0,56,0.00,RMK !SN!,RMK !SN!,0.01,WUHU216DAVISVP2,2013-02-07 18:51:00,
2013-02-07 13:56:00,41.6,26.6,30.16,NW,321,1.0,8.0,55,0.00,RMK !SN!,RMK !SN!,0.01,WUHU216DAVISVP2,2013-02-07 18:56:00,
2013-02-07 14:01:00,41.8,26.4,30.16,NNW,330,6.0,9.0,54,0.00,RMK !SN!,RMK !SN!,0.01,WUHU216DAVISVP2,2013-02-07 19:01:00,
2013-02-07 14:06:00,42.0,27.0,30.16,NNE,16,3.0,10.0,55,0.00,RMK !SN!,RMK !SN!,0.01,WUHU216DAVISVP2,2013-02-07 19:06:00,
2013-02-07 14:11:00,42.3,26.8,30.16,NNE,19,2.0,10.0,54,0.00,RMK !SN!,RMK !SN!,0.01,WUHU216DAVISVP2,2013-02-07 19:11:00,
2013-02-07 14:16:00,42.6,26.7,30.16,NNW,332,8.0,10.0,53,0.01,RMK !SN!,RMK !SN!,0.02,WUHU216DAVISVP2,2013-02-07 19:16:00,
2013-02-07 14:21:00,42.5,27.0,30.16,East,79,1.0,10.0,54,0.01,RMK !SN!,RMK !SN!,0.02,WUHU216DAVISVP2,2013-02-07 19:21:00,
2013-02-07 14:26:00,42.4,26.9,30.15,NW,308,3.0,10.0,54,0.01,RMK !SN!,RMK !SN!,0.02,WUHU216DAVISVP2,2013-02-07 19:26:00,
2013-02-07 14:31:00,42.8,27.3,30.15,NNW,344,2.0,10.0,54,0.01,RMK !SN!,RMK !SN!,0.02,WUHU216DAVISVP2,2013-02-07 19:31:00,
2013-02-07 14:36:00,43.1,27.6,30.15,ESE,117,1.0,10.0,54,0.02,RMK !SN!,RMK !SN!,0.03,WUHU216DAVISVP2,2013-02-07 19:36:00,
2013-02-07 14:41:00,43.4,27.9,30.15,West,262,0.0,10.0,54,0.02,RMK !SN!,RMK !SN!,0.03,WUHU216DAVISVP2,2013-02-07 19:41:00,
2013-02-07 14:46:00,43.9,27.9,30.14,ENE,77,1.0,10.0,53,0.02,RMK !SN!,RMK !SN!,0.03,WUHU216DAVISVP2,2013-02-07 19:46:00,
2013-02-07 14:51:00,43.9,27.4,30.14,ESE,117,0.0,8.0,52,0.02,RMK !SN!,RMK !SN!,0.03,WUHU216DAVISVP2,2013-02-07 19:51:00,
2013-02-07 14:56:00,44.0,27.5,30.14,North,5,3.0,9.0,52,0.02,RMK !SN!,RMK !SN!,0.03,WUHU216DAVISVP2,2013-02-07 19:56:00,
2013-02-07 15:01:00,44.2,27.7,30.14,NE,47,2.0,9.0,52,0.03,RMK !SN!,RMK !SN!,0.04,WUHU216DAVISVP2,2013-02-07 20:01:00,
2013-02-07 15:06:00,44.3,27.8,30.13,ENE,59,2.0,9.0,52,0.03,RMK !SN!,RMK !SN!,0.04,WUHU216DAVISVP2,2013-02-07 20:06:00,
2013-02-07 15:11:00,44.5,27.9,30.13,WNW,287,3.0,9.0,52,0.03,RMK !SN!,RMK !SN!,0.04,WUHU216DAVISVP2,2013-02-07 20:11:00,
2013-02-07 15:16:00,44.4,27.4,30.13,WSW,241,2.0,9.0,51,0.02,RMK !SN!,RMK !SN!,0.04,WUHU216DAVISVP2,2013-02-07 20:16:00,
2013-02-07 15:21:00,44.4,27.4,30.13,NNE,25,4.0,9.0,51,0.02,RMK !SN!,RMK !SN!,0.04,WUHU216DAVISVP2,2013-02-07 20:21:00,
2013-02-07 15:26:00,44.4,27.4,30.13,NNE,23,4.0,8.0,51,0.02,RMK !SN!,RMK !SN!,0.04,WUHU216DAVISVP2,2013-02-07 20:26:00,
2013-02-07 15:31:00,44.3,27.8,30.12,NE,53,3.0,8.0,52,0.02,RMK !SN!,RMK !SN!,0.04,WUHU216DAVISVP2,2013-02-07 20:31:00,
2013-02-07 15:36:00,44.4,27.9,30.12,North,349,5.0,8.0,52,0.02,RMK !SN!,RMK !SN!,0.05,WUHU216DAVISVP2,2013-02-07 20:36:00,
2013-02-07 15:41:00,44.4,27.4,30.12,WNW,303,8.0,11.0,51,0.02,RMK !SN!,RMK !SN!,0.05,WUHU216DAVISVP2,2013-02-07 20:41:00,
2013-02-07 15:46:00,44.4,27.4,30.11,WSW,246,5.0,11.0,51,0.02,RMK !SN!,RMK !SN!,0.05,WUHU216DAVISVP2,2013-02-07 20:46:00,
2013-02-07 15:51:00,44.3,27.3,30.11,SSW,208,2.0,11.0,51,0.02,RMK !SN!,RMK !SN!,0.05,WUHU216DAVISVP2,2013-02-07 20:51:00,
2013-02-07 15:56:00,44.4,27.9,30.11,WNW,286,2.0,11.0,52,0.02,RMK !SN!,RMK !SN!,0.05,WUHU216DAVISVP2,2013-02-07 20:56:00,
2013-02-07 16:01:00,44.4,27.9,30.11,NNE,19,3.0,10.0,52,0.01,RMK !SN!,RMK !SN!,0.05,WUHU216DAVISVP2,2013-02-07 21:01:00,
2013-02-07 16:06:00,44.3,27.8,30.11,NW,324,1.0,10.0,52,0.01,RMK !SN!,RMK !SN!,0.05,WUHU216DAVISVP2,2013-02-07 21:06:00,
2013-02-07 16:11:00,44.2,27.7,30.11,SW,231,8.0,10.0,52,0.01,RMK !SN!,RMK !SN!,0.05,WUHU216DAVISVP2,2013-02-07 21:11:00,
2013-02-07 16:16:00,43.9,27.4,30.10,SSW,208,2.0,10.0,52,0.01,RMK !SN!,RMK !SN!,0.05,WUHU216DAVISVP2,2013-02-07 21:16:00,
2013-02-07 16:21:00,43.9,27.4,30.10,ENE,64,1.0,10.0,52,0.01,RMK !SN!,RMK !SN!,0.05,WUHU216DAVISVP2,2013-02-07 21:21:00,
2013-02-07 16:26:00,43.7,27.2,30.09,West,266,1.0,12.0,52,0.01,RMK !SN!,RMK !SN!,0.05,WUHU216DAVISVP2,2013-02-07 21:26:00,
2013-02-07 16:31:00,43.3,27.3,30.09,WSW,249,3.0,12.0,53,0.01,RMK !SN!,RMK !SN!,0.05,WUHU216DAVISVP2,2013-02-07 21:31:00,
2013-02-07 16:37:00,42.9,27.4,30.09,ENE,58,3.0,11.0,54,0.00,RMK !SN!,RMK !SN!,0.05,WUHU216DAVISVP2,2013-02-07 21:37:00,
2013-02-07 16:42:00,42.7,27.2,30.08,SSW,205,2.0,11.0,54,0.00,RMK !SN!,RMK !SN!,0.05,WUHU216DAVISVP2,2013-02-07 21:42:00,
2013-02-07 16:48:00,42.5,27.5,30.08,North,6,2.0,8.0,55,0.00,RMK !SN!,RMK !SN!,0.05,WUHU216DAVISVP2,2013-02-07 21:48:00,
2013-02-07 16:53:00,42.4,27.4,30.08,SW,224,0.0,8.0,55,0.00,RMK !SN!,RMK !SN!,0.05,WUHU216DAVISVP2,2013-02-07 21:53:00,
2013-02-07 16:58:00,42.1,27.6,30.08,SW,217,2.0,8.0,56,0.00,RMK !SN!,RMK !SN!,0.05,WUHU216DAVISVP2,2013-02-07 21:58:00,
2013-02-07 17:03:00,42.0,27.5,30.08,West,264,0.0,8.0,56,0.00,RMK !SN!,RMK !SN!,0.05,WUHU216DAVISVP2,2013-02-07 22:03:00,
2013-02-07 17:08:00,42.0,27.5,30.08,NNW,342,2.0,6.0,56,0.00,RMK !SN!,RMK !SN!,0.05,WUHU216DAVISVP2,2013-02-07 22:08:00,
2013-02-07 17:13:00,41.8,27.2,30.07,SSE,165,0.0,7.0,56,0.00,RMK !SN!,RMK !SN!,0.05,WUHU216DAVISVP2,2013-02-07 22:13:00,
2013-02-07 17:18:00,41.7,27.6,30.07,NNW,333,3.0,8.0,57,0.00,RMK !SN!,RMK !SN!,0.05,WUHU216DAVISVP2,2013-02-07 22:18:00,
2013-02-07 17:23:00,41.7,27.6,30.06,WNW,283,1.0,8.0,57,0.00,RMK !SN!,RMK !SN!,0.05,WUHU216DAVISVP2,2013-02-07 22:23:00,
2013-02-07 17:28:00,41.6,27.5,30.06,SE,141,0.0,8.0,57,0.00,RMK !SN!,RMK !SN!,0.05,WUHU216DAVISVP2,2013-02-07 22:28:00,
2013-02-07 17:33:00,41.3,27.6,30.06,ENE,77,1.0,8.0,58,0.00,RMK !SN!,RMK !SN!,0.05,WUHU216DAVISVP2,2013-02-07 22:33:00,
2013-02-07 17:38:00,41.0,27.3,30.06,SSE,153,0.0,7.0,58,0.00,RMK !SN!,RMK !SN!,0.05,WUHU216DAVISVP2,2013-02-07 22:38:00,
2013-02-07 17:43:00,40.6,27.4,30.07,NW,319,1.0,7.0,59,0.00,RMK !SN!,RMK !SN!,0.05,WUHU216DAVISVP2,2013-02-07 22:43:00,
2013-02-07 17:48:00,40.5,27.8,30.07,NE,51,2.0,7.0,60,0.00,RMK !SN!,RMK !SN!,0.05,WUHU216DAVISVP2,2013-02-07 22:48:00,
2013-02-07 17:53:00,40.3,27.5,30.06,SE,145,0.0,6.0,60,0.00,RMK !SN!,RMK !SN!,0.05,WUHU216DAVISVP2,2013-02-07 22:53:00,
2013-02-07 17:58:00,40.0,27.6,30.06,NNW,327,0.0,6.0,61,0.00,RMK !SN!,RMK !SN!,0.05,WUHU216DAVISVP2,2013-02-07 22:58:00,
2013-02-07 18:03:00,39.8,27.4,30.06,SW,219,0.0,6.0,61,0.00,RMK !SN!,RMK !SN!,0.05,WUHU216DAVISVP2,2013-02-07 23:03:00,
2013-02-07 18:08:00,39.6,27.7,30.06,NE,54,1.0,6.0,62,0.00,RMK !SN!,RMK !SN!,0.05,WUHU216DAVISVP2,2013-02-07 23:08:00,
2013-02-07 18:13:00,39.4,27.5,30.06,NW,319,3.0,7.0,62,0.00,RMK !SN!,RMK !SN!,0.05,WUHU216DAVISVP2,2013-02-07 23:13:00,
2013-02-07 18:18:00,39.3,27.4,30.06,East,80,1.0,7.0,62,0.00,RMK !SN!,RMK !SN!,0.05,WUHU216DAVISVP2,2013-02-07 23:18:00,
2013-02-07 18:23:00,39.2,27.7,30.06,SSW,207,0.0,6.0,63,0.00,RMK !SN!,RMK !SN!,0.05,WUHU216DAVISVP2,2013-02-07 23:23:00,
2013-02-07 18:28:00,39.1,27.6,30.06,SSE,167,1.0,7.0,63,0.00,RMK !SN!,RMK !SN!,0.05,WUHU216DAVISVP2,2013-02-07 23:28:00,
2013-02-07 18:33:00,38.9,27.4,30.06,East,84,0.0,7.0,63,0.00,RMK !SN!,RMK !SN!,0.05,WUHU216DAVISVP2,2013-02-07 23:33:00,
2013-02-07 18:38:00,38.7,27.6,30.06,SE,143,0.0,6.0,64,0.00,RMK !SN!,RMK !SN!,0.05,WUHU216DAVISVP2,2013-02-07 23:38:00,
2013-02-07 18:43:00,38.5,27.5,30.06,SW,233,0.0,4.0,64,0.00,RMK !SN!,RMK !SN!,0.05,WUHU216DAVISVP2,2013-02-07 23:43:00,
2013-02-07 18:48:00,38.4,27.7,30.06,SW,226,0.0,6.0,65,0.00,RMK !SN!,RMK !SN!,0.05,WUHU216DAVISVP2,2013-02-07 23:48:00,
2013-02-07 18:53:00,38.3,27.6,30.05,SW,229,0.0,6.0,65,0.00,RMK !SN!,RMK !SN!,0.05,WUHU216DAVISVP2,2013-02-07 23:53:00,
2013-02-07 18:58:00,38.3,27.6,30.05,SSE,156,0.0,5.0,65,0.00,RMK !SN!,RMK !SN!,0.05,WUHU216DAVISVP2,2013-02-07 23:58:00,
2013-02-07 19:03:00,38.1,27.4,30.05,WSW,242,2.0,6.0,65,0.00,RMK !SN!,RMK !SN!,0.05,WUHU216DAVISVP2,2013-02-08 00:03:00,
2013-02-07 19:08:00,37.9,27.6,30.05,SW,229,1.0,6.0,66,0.00,RMK !SN!,RMK !SN!,0.05,WUHU216DAVISVP2,2013-02-08 00:08:00,
2013-02-07 19:13:00,37.8,27.5,30.05,NNE,33,1.0,7.0,66,0.00,RMK !SN!,RMK !SN!,0.05,WUHU216DAVISVP2,2013-02-08 00:13:00,
2013-02-07 19:18:00,37.7,27.4,30.04,SW,236,1.0,7.0,66,0.00,RMK !SN!,RMK !SN!,0.05,WUHU216DAVISVP2,2013-02-08 00:18:00,
2013-02-07 19:23:00,37.6,27.6,30.05,SE,127,0.0,8.0,67,0.00,RMK !SN!,RMK !SN!,0.05,WUHU216DAVISVP2,2013-02-08 00:23:00,
2013-02-07 19:28:00,37.4,27.5,30.04,WNW,291,3.0,8.0,67,0.00,RMK !SN!,RMK !SN!,0.05,WUHU216DAVISVP2,2013-02-08 00:28:00,
2013-02-07 19:33:00,37.3,27.4,30.04,ESE,115,0.0,8.0,67,0.00,RMK !SN!,RMK !SN!,0.05,WUHU216DAVISVP2,2013-02-08 00:33:00,
2013-02-07 19:38:00,37.4,27.5,30.04,NNE,21,3.0,10.0,67,0.00,RMK !SN!,RMK !SN!,0.05,WUHU216DAVISVP2,2013-02-08 00:38:00,
2013-02-07 19:43:00,37.4,27.5,30.04,NNE,26,1.0,10.0,67,0.00,RMK !SN!,RMK !SN!,0.05,WUHU216DAVISVP2,2013-02-08 00:43:00,
2013-02-07 19:48:00,37.4,27.5,30.04,ENE,69,0.0,9.0,67,0.00,RMK !SN!,RMK !SN!,0.05,WUHU216DAVISVP2,2013-02-08 00:48:00,
2013-02-07 19:53:00,37.3,27.8,30.03,South,191,0.0,9.0,68,0.00,RMK !SN!,RMK !SN!,0.05,WUHU216DAVISVP2,2013-02-08 00:53:00,
2013-02-07 19:58:00,37.3,27.8,30.03,NW,324,3.0,10.0,68,0.00,RMK !SN!,RMK !SN!,0.05,WUHU216DAVISVP2,2013-02-08 00:58:00,
2013-02-07 20:03:00,37.2,27.7,30.03,SSE,158,1.0,10.0,68,0.00,RMK !SN!,RMK !SN!,0.05,WUHU216DAVISVP2,2013-02-08 01:03:00,
2013-02-07 20:08:00,37.1,27.6,30.03,West,277,0.0,9.0,68,0.00,RMK !SN!,RMK !SN!,0.05,WUHU216DAVISVP2,2013-02-08 01:08:00,
2013-02-07 20:13:00,36.9,27.8,30.02,WSW,250,3.0,9.0,69,0.00,RMK !SN!,RMK !SN!,0.05,WUHU216DAVISVP2,2013-02-08 01:13:00,
2013-02-07 20:18:00,36.8,27.7,30.02,WNW,297,2.0,7.0,69,0.00,RMK !SN!,RMK !SN!,0.05,WUHU216DAVISVP2,2013-02-08 01:18:00,
2013-02-07 20:23:00,36.7,27.9,30.02,North,351,4.0,11.0,70,0.00,RMK !SN!,RMK !SN!,0.05,WUHU216DAVISVP2,2013-02-08 01:23:00,
2013-02-07 20:28:00,36.7,27.9,30.01,West,276,3.0,12.0,70,0.00,RMK !SN!,RMK !SN!,0.05,WUHU216DAVISVP2,2013-02-08 01:28:00,
2013-02-07 20:35:00,36.5,27.7,30.01,WNW,290,1.0,12.0,70,0.00,RMK !SN!,RMK !SN!,0.05,WUHU216DAVISVP2,2013-02-08 01:35:00,
2013-02-07 20:40:00,36.4,27.6,30.01,SW,224,2.0,11.0,70,0.00,RMK !SN!,RMK !SN!,0.05,WUHU216DAVISVP2,2013-02-08 01:40:00,
2013-02-07 20:45:00,36.3,27.5,30.01,NW,309,0.0,11.0,70,0.00,RMK !SN!,RMK !SN!,0.05,WUHU216DAVISVP2,2013-02-08 01:45:00,
2013-02-07 20:50:00,36.3,27.9,30.01,NW,313,1.0,10.0,71,0.00,RMK !SN!,RMK !SN!,0.05,WUHU216DAVISVP2,2013-02-08 01:50:00,
2013-02-07 20:55:00,36.1,27.7,30.01,NNE,18,3.0,12.0,71,0.00,RMK !SN!,RMK !SN!,0.05,WUHU216DAVISVP2,2013-02-08 01:55:00,
2013-02-07 21:00:00,36.0,27.6,30.00,East,101,1.0,12.0,71,0.00,RMK !SN!,RMK !SN!,0.05,WUHU216DAVISVP2,2013-02-08 02:00:00,
2013-02-07 21:04:00,35.9,27.5,30.00,WNW,294,2.0,12.0,71,0.00,RMK !SN!,RMK !SN!,0.05,WUHU216DAVISVP2,2013-02-08 02:04:00,
2013-02-07 21:09:00,35.9,27.5,30.00,SW,214,1.0,11.0,71,0.00,RMK !SN!,RMK !SN!,0.05,WUHU216DAVISVP2,2013-02-08 02:09:00,
2013-02-07 21:14:00,35.8,27.7,29.99,NE,41,2.0,8.0,72,0.00,RMK !SN!,RMK !SN!,0.05,WUHU216DAVISVP2,2013-02-08 02:14:00,
2013-02-07 21:19:00,35.6,27.5,29.99,South,175,1.0,8.0,72,0.00,RMK !SN!,RMK !SN!,0.05,WUHU216DAVISVP2,2013-02-08 02:19:00,
2013-02-07 21:24:00,35.5,27.4,29.99,SSE,162,0.0,7.0,72,0.00,RMK !SN!,RMK !SN!,0.05,WUHU216DAVISVP2,2013-02-08 02:24:00,
2013-02-07 21:30:00,35.5,27.8,29.99,ENE,63,1.0,13.0,73,0.00,RMK !SN!,RMK !SN!,0.05,WUHU216DAVISVP2,2013-02-08 02:30:00,
2013-02-07 21:35:00,35.5,27.4,29.99,NNE,21,4.0,13.0,72,0.00,RMK !SN!,RMK !SN!,0.05,WUHU216DAVISVP2,2013-02-08 02:35:00,
2013-02-07 21:40:00,35.6,27.5,29.99,NNW,346,5.0,12.0,72,0.00,RMK !SN!,RMK !SN!,0.05,WUHU216DAVISVP2,2013-02-08 02:40:00,
2013-02-07 21:45:00,35.5,27.4,29.98,West,281,4.0,12.0,72,0.00,RMK !SN!,RMK !SN!,0.05,WUHU216DAVISVP2,2013-02-08 02:45:00,
2013-02-07 21:50:00,35.3,27.5,29.98,North,356,2.0,10.0,73,0.00,RMK !SN!,RMK !SN!,0.05,WUHU216DAVISVP2,2013-02-08 02:50:00,
2013-02-07 21:55:00,35.3,27.5,29.98,SW,221,2.0,10.0,73,0.00,RMK !SN!,RMK !SN!,0.05,WUHU216DAVISVP2,2013-02-08 02:55:00,
2013-02-07 22:00:00,35.3,27.6,29.98,SW,233,3.0,10.0,73,0.00,RMK !SN!,RMK !SN!,0.05,WUHU216DAVISVP2,2013-02-08 03:00:00,
2013-02-07 22:05:00,35.2,27.5,29.98,West,273,3.0,8.0,73,0.00,RMK !SN!,RMK !SN!,0.05,WUHU216DAVISVP2,2013-02-08 03:05:00,
2013-02-07 22:10:00,35.2,27.5,29.97,SSW,203,1.0,11.0,73,0.00,RMK !SN!,RMK !SN!,0.05,WUHU216DAVISVP2,2013-02-08 03:10:00,
2013-02-07 22:15:00,35.2,27.5,29.97,WNW,288,3.0,11.0,73,0.00,RMK !SN!,RMK !SN!,0.05,WUHU216DAVISVP2,2013-02-08 03:15:00,
2013-02-07 22:20:00,35.1,27.6,29.97,SSE,162,0.0,10.0,74,0.00,RMK !SN!,RMK !SN!,0.05,WUHU216DAVISVP2,2013-02-08 03:20:00,
2013-02-07 22:25:00,35.1,27.7,29.97,WSW,246,2.0,10.0,74,0.00,RMK !SN!,RMK !SN!,0.05,WUHU216DAVISVP2,2013-02-08 03:25:00,
2013-02-07 22:30:00,35.0,27.5,29.96,WNW,297,3.0,9.0,74,0.00,RMK !SN!,RMK !SN!,0.05,WUHU216DAVISVP2,2013-02-08 03:30:00,
2013-02-07 22:35:00,35.0,27.6,29.96,NW,308,1.0,9.0,74,0.00,RMK !SN!,RMK !SN!,0.05,WUHU216DAVISVP2,2013-02-08 03:35:00,
2013-02-07 22:40:00,34.9,27.5,29.96,NNE,22,1.0,9.0,74,0.00,RMK !SN!,RMK !SN!,0.05,WUHU216DAVISVP2,2013-02-08 03:40:00,
2013-02-07 22:45:00,34.9,27.8,29.96,NE,34,2.0,9.0,75,0.00,RMK !SN!,RMK !SN!,0.05,WUHU216DAVISVP2,2013-02-08 03:45:00,
2013-02-07 22:50:00,34.9,27.8,29.96,NE,42,2.0,9.0,75,0.00,RMK !SN!,RMK !SN!,0.05,WUHU216DAVISVP2,2013-02-08 03:50:00,
2013-02-07 22:55:00,34.9,27.8,29.95,NW,311,7.0,12.0,75,0.00,RMK !SN!,RMK !SN!,0.05,WUHU216DAVISVP2,2013-02-08 03:55:00,
2013-02-07 23:00:00,34.8,27.7,29.95,WSW,251,2.0,12.0,75,0.00,RMK !SN!,RMK !SN!,0.05,WUHU216DAVISVP2,2013-02-08 04:00:00,
2013-02-07 23:05:00,34.8,27.7,29.95,SSE,166,1.0,12.0,75,0.00,RMK !SN!,RMK !SN!,0.05,WUHU216DAVISVP2,2013-02-08 04:05:00,
2013-02-07 23:10:00,34.8,28.0,29.94,NNE,16,4.0,12.0,76,0.00,RMK !SN!,RMK !SN!,0.05,WUHU216DAVISVP2,2013-02-08 04:10:00,
2013-02-07 23:15:00,34.8,28.0,29.94,NW,304,2.0,12.0,76,0.00,RMK !SN!,RMK !SN!,0.05,WUHU216DAVISVP2,2013-02-08 04:15:00,
2013-02-07 23:20:00,34.8,28.0,29.93,NNE,30,7.0,16.0,76,0.00,RMK !SN!,RMK !SN!,0.05,WUHU216DAVISVP2,2013-02-08 04:20:00,
2013-02-07 23:25:00,34.7,27.9,29.93,NNW,347,3.0,16.0,76,0.00,RMK !SN!,RMK !SN!,0.05,WUHU216DAVISVP2,2013-02-08 04:25:00,
2013-02-07 23:30:00,34.8,28.0,29.93,NNE,26,4.0,14.0,76,0.00,RMK !SN!,RMK !SN!,0.05,WUHU216DAVISVP2,2013-02-08 04:30:00,
2013-02-07 23:35:00,34.8,28.3,29.93,West,271,2.0,14.0,77,0.00,RMK !SN!,RMK !SN!,0.05,WUHU216DAVISVP2,2013-02-08 04:35:00,
2013-02-07 23:40:00,34.9,28.5,29.92,NNW,330,6.0,11.0,77,0.00,RMK !SN!,RMK !SN!,0.05,WUHU216DAVISVP2,2013-02-08 04:40:00,
2013-02-07 23:45:00,34.9,28.5,29.92,NW,304,1.0,11.0,77,0.00,RMK !SN!,RMK !SN!,0.05,WUHU216DAVISVP2,2013-02-08 04:45:00,
2013-02-07 23:50:00,35.0,28.6,29.92,NNW,337,8.0,11.0,77,0.00,RMK !SN!,RMK !SN!,0.05,WUHU216DAVISVP2,2013-02-08 04:50:00,
2013-02-07 23:55:00,35.1,28.6,29.92,ENE,58,3.0,11.0,77,0.00,RMK !SN!,RMK !SN!,0.05,WUHU216DAVISVP2,2013-02-08 04:55:00,